Location: Casilda
(33.0440°S, 61.1680°W)
Time: 10:13:54
(UTC-03:00)

ISS - Pass Details

Date: 22 September 2023
Orbit: 413 x 421 km, 51.6° (Epoch: 26 September)

Event Time Altitude Azimuth Distance (km) Brightness Sun altitude
Exits shadow 06:26:38 - 249° (WSW) 1,792 -1.1 -6.7°
Reaches altitude 10° 06:27:52 10° 233° (SW) 1,530 -1.4 -6.4°
Maximum altitude 06:29:17 12° 209° (SSW) 1,413 -1.3 -6.1°
Drops below altitude 10° 06:30:42 10° 184° (S) 1,534 -0.9 -5.8°
Sets 06:33:57 0° 151° (SSE) 2,405 0.6 -5.1°
